Torna al catalogo

STARLINK-4201

AttivoComunicazioniVLEO
NORAD 52856·PAYLOAD·🇺🇸 United States

Lanciato Jun 17, 2022 da Cape Canaveral Space Force Station

Loading…

Prossimi Passaggi (prossime 24 ore)

TLE

AggiornatoSource: CelesTrak SupGP

Epoca: Sep 14, 2026, 20:38 UTC

1 52856C 22062AC  26257.86020833  .00031023  00000+0  94132-3 0  2577
2 52856  53.1569 244.2760 0001233  97.8675 282.1183 15.33534968    16

Traccia STARLINK-4201 in tempo reale con AllMySat

Download on the App Store